,,PA_Meas_PMT16A,,PR_Meas_QMR101_102,,RH_Meas_QMH101,,SR_Meas_QMS101,,TA_Meas_QMH101,,GenWind,,GenWind,
time,status,PA,status,PR,status,RH,status,SR,status,TA,status,DirAvg,status,SpdAvg,
2014-11-19, 00:00:04,VALID,918.137,VALID,0,VALID,98.0219,VALID,0,VALID,19.5483,VALID,96,VALID,0,
2014-11-19, 00:01:04,VALID,918.139,VALID,0,VALID,98.06,VALID,0,VALID,19.5093,VALID,96,VALID,0,
2014-11-19, 00:02:04,VALID,918.124,VALID,0,VALID,98.0295,VALID,0,VALID,19.4898,VALID,97,VALID,0,
2014-11-19, 00:03:04,VALID,918.115,VALID,0,VALID,98.0524,VALID,0,VALID,19.5093,VALID,96,VALID,0,
2014-11-19, 00:04:04,VALID,918.159,VALID,0,VALID,98.0524,VALID,0,VALID,19.4898,VALID,97,VALID,0,
2014-11-19, 00:05:04,VALID,918.12,VALID,0,VALID,98.0524,VALID,0,VALID,19.4493,VALID,97,VALID,0,
2014-11-19, 00:06:04,VALID,918.164,VALID,0,VALID,98.0752,VALID,0,VALID,19.4313,VALID,97,VALID,0,
2014-11-19, 00:07:04,VALID,918.162,VALID,0,VALID,98.0752,VALID,0,VALID,19.4313,VALID,107,VALID,0,
2014-11-19, 00:08:04,VALID,918.143,VALID,0,VALID,98.0676,VALID,0,VALID,19.4118,VALID,107,VALID,0,
2014-11-19, 00:09:04,VALID,918.154,VALID,0,VALID,98.06,VALID,0,VALID,19.4118,VALID,107,VALID,0,
2014-11-19, 00:10:04,VALID,918.144,VALID,0,VALID,98.0676,VALID,0,VALID,19.4118,VALID,107,VALID,0,
2014-11-19, 00:11:04,VALID,918.127,VALID,0,VALID,98.0752,VALID,0.107441,VALID,19.3908,VALID,107,VALID,0,
2014-11-19, 00:12:04,VALID,918.134,VALID,0,VALID,98.0905,VALID,0,VALID,19.3908,VALID,107,VALID,0,
2014-11-19, 00:13:04,VALID,918.14,VALID,0,VALID,98.06,VALID,0.107441,VALID,19.3908,VALID,107,VALID,0,
2014-11-19, 00:14:04,VALID,918.108,VALID,0,VALID,98.0752,VALID,0.107441,VALID,19.3908,VALID,107,VALID,0,
2014-11-19, 00:15:04,VALID,918.085,VALID,0,VALID,98.0524,VALID,0,VALID,19.4103,VALID,107,VALID,0,
2014-11-19, 00:16:04,VALID,918.095,VALID,0,VALID,98.0676,VALID,0,VALID,19.3893,VALID,107,VALID,0,
2014-11-19, 00:17:04,VALID,918.115,VALID,0,VALID,98.0524,VALID,0,VALID,19.4103,VALID,107,VALID,0,
2014-11-19, 00:18:04,VALID,918.093,VALID,0,VALID,98.0676,VALID,0,VALID,19.4298,VALID,107,VALID,0,
2014-11-19, 00:19:04,VALID,918.092,VALID,0,VALID,98.0752,VALID,0,VALID,19.4298,VALID,107,VALID,0.05,
2014-11-19, 00:20:04,VALID,918.09,VALID,0,VALID,98.06,VALID,0,VALID,19.4298,VALID,120,VALID,0.950781,
2014-11-19, 00:21:04,VALID,918.088,VALID,0,VALID,98.0448,VALID,0.107441,VALID,19.4493,VALID,120,VALID,0.810547,
2014-11-19, 00:22:04,VALID,918.07,VALID,0,VALID,98.0676,VALID,0.107441,VALID,19.4493,VALID,120,VALID,0.363672,
2014-11-19, 00:23:04,VALID,918.094,VALID,0,VALID,98.0448,VALID,0.107441,VALID,19.4493,VALID,120,VALID,0,
2014-11-19, 00:24:04,VALID,918.077,VALID,0,VALID,98.0448,VALID,0,VALID,19.4688,VALID,119,VALID,0,
2014-11-19, 00:25:04,VALID,918.082,VALID,0,VALID,98.0524,VALID,0,VALID,19.4898,VALID,120,VALID,0.594141,
2014-11-19, 00:26:04,VALID,918.055,VALID,0,VALID,98.0371,VALID,0,VALID,19.4703,VALID,120,VALID,0,
2014-11-19, 00:27:04,VALID,918.011,VALID,0,VALID,98.0371,VALID,0,VALID,19.4703,VALID,120,VALID,0,
2014-11-19, 00:28:04,VALID,917.992,VALID,0,VALID,98.0295,VALID,0,VALID,19.4703,VALID,120,VALID,0,
2014-11-19, 00:29:04,VALID,917.979,VALID,0,VALID,98.06,VALID,0,VALID,19.4703,VALID,120,VALID,0,
2014-11-19, 00:30:04,VALID,917.922,VALID,0,VALID,98.0371,VALID,0,VALID,19.4703,VALID,120,VALID,0.911328,
2014-11-19, 00:31:04,VALID,917.939,VALID,0,VALID,98.0448,VALID,0,VALID,19.4508,VALID,120,VALID,0.553906,
2014-11-19, 00:32:04,VALID,917.884,VALID,0,VALID,98.0676,VALID,0,VALID,19.4703,VALID,120,VALID,0.430859,
2014-11-19, 00:33:04,VALID,917.883,VALID,0,VALID,98.0448,VALID,0,VALID,19.4508,VALID,120,VALID,0,
2014-11-19, 00:34:04,VALID,917.877,VALID,0,VALID,98.0371,VALID,0,VALID,19.4703,VALID,120,VALID,0,
2014-11-19, 00:35:04,VALID,917.877,VALID,0,VALID,98.06,VALID,0,VALID,19.4298,VALID,120,VALID,0,
2014-11-19, 00:36:04,VALID,917.895,VALID,0,VALID,98.0676,VALID,0,VALID,19.4313,VALID,120,VALID,0,
2014-11-19, 00:37:04,VALID,917.888,VALID,0,VALID,98.0676,VALID,0,VALID,19.4508,VALID,120,VALID,0,
2014-11-19, 00:38:04,VALID,917.887,VALID,0,VALID,98.0295,VALID,0,VALID,19.4313,VALID,120,VALID,0,
2014-11-19, 00:39:04,VALID,917.889,VALID,0,VALID,98.06,VALID,0,VALID,19.4118,VALID,120,VALID,0,
2014-11-19, 00:40:04,VALID,917.9,VALID,0,VALID,98.0752,VALID,0,VALID,19.4118,VALID,120,VALID,0,
2014-11-19, 00:41:04,VALID,917.898,VALID,0,VALID,98.0448,VALID,0,VALID,19.4313,VALID,120,VALID,0,
2014-11-19, 00:42:04,VALID,917.878,VALID,0,VALID,98.0295,VALID,0,VALID,19.4313,VALID,120,VALID,0,
2014-11-19, 00:43:04,VALID,917.863,VALID,0,VALID,98.0448,VALID,0,VALID,19.4298,VALID,120,VALID,0,
2014-11-19, 00:44:04,VALID,917.854,VALID,0,VALID,98.0676,VALID,0,VALID,19.4118,VALID,120,VALID,0,
2014-11-19, 00:45:04,VALID,917.873,VALID,0,VALID,98.0676,VALID,0,VALID,19.4118,VALID,120,VALID,0,
2014-11-19, 00:46:04,VALID,917.848,VALID,0,VALID,98.0524,VALID,0,VALID,19.3908,VALID,120,VALID,0,
2014-11-19, 00:47:04,VALID,917.866,VALID,0,VALID,98.06,VALID,0,VALID,19.4313,VALID,120,VALID,0,
2014-11-19, 00:48:04,VALID,917.865,VALID,0,VALID,98.06,VALID,0,VALID,19.3908,VALID,120,VALID,0,
2014-11-19, 00:49:04,VALID,917.847,VALID,0,VALID,98.0524,VALID,0,VALID,19.4313,VALID,120,VALID,0,
2014-11-19, 00:50:04,VALID,917.81,VALID,0,VALID,98.0448,VALID,0,VALID,19.4313,VALID,120,VALID,0,
2014-11-19, 00:51:04,VALID,917.82,VALID,0,VALID,98.0524,VALID,0,VALID,19.4298,VALID,120,VALID,0,
2014-11-19, 00:52:04,VALID,917.811,VALID,0,VALID,98.0448,VALID,0,VALID,19.4508,VALID,120,VALID,0,
2014-11-19, 00:53:04,VALID,917.78,VALID,0,VALID,98.06,VALID,0,VALID,19.4118,VALID,120,VALID,0,
2014-11-19, 00:54:04,VALID,917.79,VALID,0,VALID,98.06,VALID,0,VALID,19.4118,VALID,120,VALID,0,
2014-11-19, 00:55:04,VALID,917.771,VALID,0,VALID,98.0676,VALID,0,VALID,19.3923,VALID,120,VALID,0,
2014-11-19, 00:56:04,VALID,917.777,VALID,0,VALID,98.0524,VALID,0,VALID,19.3923,VALID,120,VALID,0,
2014-11-19, 00:57:04,VALID,917.73,VALID,0,VALID,98.0448,VALID,0,VALID,19.3923,VALID,120,VALID,0,
2014-11-19, 00:58:04,VALID,917.751,VALID,0,VALID,98.0524,VALID,0,VALID,19.3713,VALID,120,VALID,0,
2014-11-19, 00:59:04,VALID,917.73,VALID,0,VALID,98.06,VALID,0,VALID,19.3728,VALID,120,VALID,0,
2014-11-19, 01:00:04,VALID,917.697,VALID,0,VALID,98.0752,VALID,0,VALID,19.3728,VALID,120,VALID,0,
2014-11-19, 01:01:04,VALID,917.682,VALID,0,VALID,98.0676,VALID,0,VALID,19.3923,VALID,120,VALID,0,
2014-11-19, 01:02:04,VALID,917.709,VALID,0,VALID,98.0829,VALID,0,VALID,19.3728,VALID,120,VALID,0,
2014-11-19, 01:03:04,VALID,917.689,VALID,0,VALID,98.0752,VALID,0,VALID,19.3323,VALID,119,VALID,0,
2014-11-19, 01:04:04,VALID,917.682,VALID,0,VALID,98.0752,VALID,0,VALID,19.3533,VALID,120,VALID,0,
2014-11-19, 01:05:04,VALID,917.683,VALID,0,VALID,98.0905,VALID,0,VALID,19.3338,VALID,120,VALID,0,
2014-11-19, 01:06:04,VALID,917.694,VALID,0,VALID,98.0752,VALID,0,VALID,19.3338,VALID,120,VALID,0,
2014-11-19, 01:07:04,VALID,917.659,VALID,0,VALID,98.0752,VALID,0,VALID,19.3128,VALID,120,VALID,0,
2014-11-19, 01:08:04,VALID,917.665,VALID,0,VALID,98.0524,VALID,0,VALID,19.3323,VALID,120,VALID,0,
2014-11-19, 01:09:04,VALID,917.642,VALID,0,VALID,98.06,VALID,0,VALID,19.3728,VALID,120,VALID,0,
2014-11-19, 01:10:04,VALID,917.657,VALID,0,VALID,98.0752,VALID,0,VALID,19.3713,VALID,120,VALID,0,
2014-11-19, 01:11:04,VALID,917.618,VALID,0,VALID,98.0676,VALID,0,VALID,19.4118,VALID,120,VALID,0,
2014-11-19, 01:12:04,VALID,917.602,VALID,0,VALID,98.0448,VALID,0,VALID,19.4327,VALID,120,VALID,0,
2014-11-19, 01:13:04,VALID,917.567,VALID,0,VALID,98.0524,VALID,0,VALID,19.4118,VALID,120,VALID,0,
2014-11-19, 01:14:04,VALID,917.561,VALID,0,VALID,98.0829,VALID,0,VALID,19.3728,VALID,120,VALID,0,
2014-11-19, 01:15:04,VALID,917.529,VALID,0,VALID,98.0752,VALID,0,VALID,19.3923,VALID,120,VALID,0,
2014-11-19, 01:16:04,VALID,917.519,VALID,0,VALID,98.0752,VALID,0,VALID,19.3338,VALID,120,VALID,0,
2014-11-19, 01:17:04,VALID,917.499,VALID,0,VALID,98.0905,VALID,0,VALID,19.2948,VALID,120,VALID,0,
2014-11-19, 01:18:04,VALID,917.497,VALID,0,VALID,98.0752,VALID,0,VALID,19.2753,VALID,120,VALID,0,
2014-11-19, 01:19:04,VALID,917.495,VALID,0,VALID,98.0676,VALID,0,VALID,19.2948,VALID,120,VALID,0.517578,
2014-11-19, 01:20:04,VALID,917.447,VALID,0,VALID,98.0752,VALID,0,VALID,19.2753,VALID,119,VALID,0.312891,
2014-11-19, 01:21:04,VALID,917.435,VALID,0,VALID,98.0905,VALID,0,VALID,19.2962,VALID,120,VALID,0.714844,
2014-11-19, 01:22:04,VALID,917.413,VALID,0,VALID,98.0905,VALID,0,VALID,19.2948,VALID,119,VALID,0.521094,
2014-11-19, 01:23:04,VALID,917.361,VALID,0,VALID,98.0676,VALID,0,VALID,19.3143,VALID,119,VALID,0.459375,
2014-11-19, 01:24:04,VALID,917.345,VALID,0,VALID,98.0524,VALID,0,VALID,19.3533,VALID,119,VALID,0.300391,
2014-11-19, 01:25:04,VALID,917.327,VALID,0,VALID,98.0676,VALID,0,VALID,19.3518,VALID,119,VALID,0.1375,
2014-11-19, 01:26:04,VALID,917.304,VALID,0,VALID,98.06,VALID,0,VALID,19.3518,VALID,119,VALID,0.000390625,
2014-11-19, 01:27:04,VALID,917.299,VALID,0,VALID,98.0829,VALID,0.107441,VALID,19.3518,VALID,119,VALID,0,
2014-11-19, 01:28:04,VALID,917.281,VALID,0,VALID,98.0829,VALID,0,VALID,19.3518,VALID,119,VALID,0,
2014-11-19, 01:29:04,VALID,917.287,VALID,0,VALID,98.0676,VALID,0,VALID,19.3713,VALID,119,VALID,0,
2014-11-19, 01:30:04,VALID,917.285,VALID,0,VALID,98.06,VALID,0,VALID,19.3908,VALID,119,VALID,0,
2014-11-19, 01:31:04,VALID,917.254,VALID,0,VALID,98.0524,VALID,0,VALID,19.4298,VALID,119,VALID,0,
2014-11-19, 01:32:04,VALID,917.258,VALID,0,VALID,98.0676,VALID,0,VALID,19.4103,VALID,119,VALID,0,
2014-11-19, 01:33:04,VALID,917.253,VALID,0,VALID,98.06,VALID,0,VALID,19.4298,VALID,119,VALID,0,
2014-11-19, 01:34:04,VALID,917.232,VALID,0,VALID,98.06,VALID,0.107441,VALID,19.4088,VALID,119,VALID,0,
2014-11-19, 01:35:04,VALID,917.204,VALID,0,VALID,98.0524,VALID,0,VALID,19.4493,VALID,119,VALID,0,
2014-11-19, 01:36:04,VALID,917.2,VALID,0,VALID,98.0371,VALID,0.107441,VALID,19.4478,VALID,119,VALID,0.711328,
2014-11-19, 01:37:04,VALID,917.191,VALID,0,VALID,98.0524,VALID,0,VALID,19.4883,VALID,119,VALID,0.742188,
2014-11-19, 01:38:04,VALID,917.177,VALID,0,VALID,98.0448,VALID,0.107441,VALID,19.4883,VALID,119,VALID,0.960547,
2014-11-19, 01:39:04,VALID,917.142,VALID,0,VALID,98.0448,VALID,0.107441,VALID,19.4883,VALID,119,VALID,0.654297,
2014-11-19, 01:40:04,VALID,917.12,VALID,0,VALID,98.0448,VALID,0,VALID,19.4883,VALID,119,VALID,0.751172,
2014-11-19, 01:41:04,VALID,917.125,VALID,0,VALID,98.0295,VALID,0,VALID,19.4883,VALID,119,VALID,0.669922,
2014-11-19, 01:42:04,VALID,917.093,VALID,0,VALID,98.0524,VALID,0,VALID,19.4883,VALID,119,VALID,0.373828,
2014-11-19, 01:43:04,VALID,917.069,VALID,0,VALID,98.0295,VALID,0.107441,VALID,19.4688,VALID,119,VALID,0.435547,
2014-11-19, 01:44:04,VALID,917.088,VALID,0,VALID,98.0295,VALID,0.107441,VALID,19.4688,VALID,119,VALID,0.178906,
2014-11-19, 01:45:04,VALID,917.059,VALID,0,VALID,98.0524,VALID,0,VALID,19.4688,VALID,119,VALID,0.285937,
2014-11-19, 01:46:04,VALID,917.065,VALID,0,VALID,98.0448,VALID,0,VALID,19.4688,VALID,119,VALID,0.0078125,
2014-11-19, 01:47:04,VALID,917.039,VALID,0,VALID,98.0524,VALID,0.107441,VALID,19.4883,VALID,119,VALID,0.0644531,
2014-11-19, 01:48:04,VALID,917.038,VALID,0,VALID,98.0371,VALID,0,VALID,19.4688,VALID,119,VALID,0,
2014-11-19, 01:49:04,VALID,917.041,VALID,0,VALID,98.0448,VALID,0,VALID,19.4688,VALID,119,VALID,0,
2014-11-19, 01:50:04,VALID,916.984,VALID,0,VALID,98.0524,VALID,0,VALID,19.4883,VALID,119,VALID,0,
2014-11-19, 01:51:04,VALID,916.981,VALID,0,VALID,98.0371,VALID,0,VALID,19.4883,VALID,119,VALID,0,
2014-11-19, 01:52:04,VALID,916.953,VALID,0,VALID,98.0524,VALID,0.107441,VALID,19.5078,VALID,119,VALID,0,
2014-11-19, 01:53:04,VALID,916.94,VALID,0,VALID,98.06,VALID,0.107441,VALID,19.5063,VALID,119,VALID,0,
2014-11-19, 01:54:04,VALID,916.918,VALID,0,VALID,98.0524,VALID,0,VALID,19.5078,VALID,119,VALID,0,
2014-11-19, 01:55:04,VALID,916.909,VALID,0,VALID,98.0448,VALID,0.107441,VALID,19.5078,VALID,119,VALID,0,
2014-11-19, 01:56:04,VALID,916.904,VALID,0,VALID,98.0371,VALID,0,VALID,19.5273,VALID,119,VALID,0,
2014-11-19, 01:57:04,VALID,916.876,VALID,0,VALID,98.0371,VALID,0.107441,VALID,19.4868,VALID,119,VALID,0,
2014-11-19, 01:58:04,VALID,916.866,VALID,0,VALID,98.0448,VALID,0.107441,VALID,19.5078,VALID,119,VALID,0,
2014-11-19, 01:59:04,VALID,916.86,VALID,0,VALID,98.06,VALID,0.107441,VALID,19.5078,VALID,119,VALID,0,
2014-11-19, 02:00:04,VALID,916.841,VALID,0,VALID,98.0524,VALID,0.107441,VALID,19.4883,VALID,119,VALID,0,
2014-11-19, 02:01:04,VALID,916.847,VALID,0,VALID,98.0676,VALID,0,VALID,19.4688,VALID,119,VALID,0,
2014-11-19, 02:02:04,VALID,916.857,VALID,0,VALID,98.06,VALID,0.107441,VALID,19.4298,VALID,119,VALID,0.132422,
2014-11-19, 02:03:04,VALID,916.851,VALID,0,VALID,98.0829,VALID,0.107441,VALID,19.3713,VALID,119,VALID,0.416797,
2014-11-19, 02:04:04,VALID,916.835,VALID,0,VALID,98.0905,VALID,0.107441,VALID,19.3713,VALID,119,VALID,0.364453,
2014-11-19, 02:05:04,VALID,916.793,VALID,0,VALID,98.0752,VALID,0.107441,VALID,19.3908,VALID,119,VALID,0.478125,
2014-11-19, 02:06:04,VALID,916.811,VALID,0,VALID,98.0752,VALID,0.107441,VALID,19.3713,VALID,119,VALID,0.672266,
2014-11-19, 02:07:04,VALID,916.817,VALID,0,VALID,98.06,VALID,0.107441,VALID,19.3713,VALID,119,VALID,0.299609,
2014-11-19, 02:08:04,VALID,916.843,VALID,0,VALID,98.0752,VALID,0.107441,VALID,19.3518,VALID,119,VALID,0.600781,
2014-11-19, 02:09:04,VALID,916.85,VALID,0,VALID,98.0752,VALID,0,VALID,19.3323,VALID,119,VALID,0.216797,
2014-11-19, 02:10:04,VALID,916.83,VALID,0,VALID,98.06,VALID,0.107441,VALID,19.3113,VALID,119,VALID,0.630859,
2014-11-19, 02:11:04,VALID,916.823,VALID,0,VALID,98.0829,VALID,0.107441,VALID,19.3323,VALID,119,VALID,0.405078,
2014-11-19, 02:12:04,VALID,916.798,VALID,0,VALID,98.0829,VALID,0.107441,VALID,19.3323,VALID,119,VALID,0.573828,
2014-11-19, 02:13:04,VALID,916.829,VALID,0,VALID,98.0905,VALID,0.107441,VALID,19.3308,VALID,119,VALID,0,
2014-11-19, 02:14:04,VALID,916.842,VALID,0,VALID,98.0829,VALID,0.107441,VALID,19.3518,VALID,119,VALID,0,
2014-11-19, 02:15:04,VALID,916.819,VALID,0,VALID,98.06,VALID,0.107441,VALID,19.3518,VALID,118,VALID,0,
2014-11-19, 02:16:04,VALID,916.848,VALID,0,VALID,98.0524,VALID,0,VALID,19.3713,VALID,119,VALID,0,
2014-11-19, 02:17:05,VALID,916.843,VALID,0.2,VALID,98.06,VALID,0.107441,VALID,19.3698,VALID,119,VALID,0,
2014-11-19, 02:18:05,VALID,916.822,VALID,0,VALID,98.0676,VALID,0.107441,VALID,19.3908,VALID,119,VALID,0,
2014-11-19, 02:19:05,VALID,916.83,VALID,0,VALID,98.0448,VALID,0.107441,VALID,19.4298,VALID,119,VALID,0,
2014-11-19, 02:20:05,VALID,916.814,VALID,0,VALID,98.0448,VALID,0.107441,VALID,19.4298,VALID,137,VALID,0,
2014-11-19, 02:21:05,VALID,916.799,VALID,0,VALID,98.0448,VALID,0.107441,VALID,19.4493,VALID,137,VALID,0,
2014-11-19, 02:22:05,VALID,916.805,VALID,0,VALID,98.0524,VALID,0.107441,VALID,19.4493,VALID,137,VALID,0,
2014-11-19, 02:23:05,VALID,916.767,VALID,0,VALID,98.0448,VALID,0.107441,VALID,19.4673,VALID,137,VALID,0,
2014-11-19, 02:24:05,VALID,916.761,VALID,0,VALID,98.06,VALID,0.107441,VALID,19.4493,VALID,137,VALID,0,
2014-11-19, 02:25:05,VALID,916.737,VALID,0,VALID,98.0295,VALID,0,VALID,19.4703,VALID,137,VALID,0,
2014-11-19, 02:26:05,VALID,916.723,VALID,0,VALID,98.0448,VALID,0,VALID,19.4703,VALID,131,VALID,0,
2014-11-19, 02:27:05,VALID,916.741,VALID,0,VALID,98.0524,VALID,0,VALID,19.4508,VALID,120,VALID,0,
2014-11-19, 02:28:05,VALID,916.738,VALID,0,VALID,98.0524,VALID,0,VALID,19.4508,VALID,120,VALID,0,
2014-11-19, 02:29:05,VALID,916.697,VALID,0,VALID,98.06,VALID,0,VALID,19.4508,VALID,118,VALID,0.780469,
2014-11-19, 02:30:05,VALID,916.679,VALID,0,VALID,98.06,VALID,0,VALID,19.4703,VALID,100,VALID,0.777734,
2014-11-19, 02:31:05,VALID,916.684,VALID,0,VALID,98.06,VALID,0,VALID,19.4703,VALID,100,VALID,0.758203,
2014-11-19, 02:32:05,VALID,916.659,VALID,0,VALID,98.0524,VALID,0,VALID,19.4298,VALID,102,VALID,0.695703,
2014-11-19, 02:33:05,VALID,916.649,VALID,0,VALID,98.0448,VALID,0.107441,VALID,19.4508,VALID,100,VALID,1.04609,
2014-11-19, 02:34:05,VALID,916.643,VALID,0,VALID,98.0448,VALID,0,VALID,19.4298,VALID,97,VALID,0.935156,
2014-11-19, 02:35:05,VALID,916.626,VALID,0,VALID,98.0524,VALID,0,VALID,19.4313,VALID,106,VALID,0.564844,
2014-11-19, 02:36:05,VALID,916.613,VALID,0,VALID,98.0524,VALID,0,VALID,19.4313,VALID,106,VALID,0.9375,
2014-11-19, 02:37:05,VALID,916.6,VALID,0,VALID,98.06,VALID,0,VALID,19.4313,VALID,108,VALID,0.616797,
2014-11-19, 02:38:05,VALID,916.574,VALID,0,VALID,98.0371,VALID,0,VALID,19.4313,VALID,119,VALID,0.699219,
2014-11-19, 02:39:05,VALID,916.554,VALID,0,VALID,98.06,VALID,0,VALID,19.4703,VALID,134,VALID,0.817187,
2014-11-19, 02:40:05,VALID,916.539,VALID,0,VALID,98.0524,VALID,0,VALID,19.4508,VALID,134,VALID,0.797656,
2014-11-19, 02:41:05,VALID,916.518,VALID,0,VALID,98.0371,VALID,0,VALID,19.4508,VALID,133,VALID,1.20742,
2014-11-19, 02:42:05,VALID,916.49,VALID,0,VALID,98.0295,VALID,0,VALID,19.4703,VALID,133,VALID,0.489844,
2014-11-19, 02:43:05,VALID,916.48,VALID,0,VALID,98.0448,VALID,0,VALID,19.4703,VALID,133,VALID,0.8375,
2014-11-19, 02:44:05,VALID,916.478,VALID,0,VALID,98.0524,VALID,0,VALID,19.4703,VALID,133,VALID,0.547656,
2014-11-19, 02:45:05,VALID,916.467,VALID,0,VALID,98.06,VALID,0,VALID,19.4898,VALID,125,VALID,1.15391,
2014-11-19, 02:46:05,VALID,916.445,VALID,0,VALID,98.0371,VALID,0,VALID,19.4898,VALID,134,VALID,0.909375,
2014-11-19, 02:47:05,VALID,916.434,VALID,0,VALID,98.0448,VALID,0,VALID,19.4898,VALID,134,VALID,0,
2014-11-19, 02:48:05,VALID,916.446,VALID,0,VALID,98.0219,VALID,0,VALID,19.5093,VALID,134,VALID,0.960156,
2014-11-19, 02:49:05,VALID,916.439,VALID,0,VALID,98.0295,VALID,0,VALID,19.5093,VALID,134,VALID,0.741406,
2014-11-19, 02:50:05,VALID,916.44,VALID,0,VALID,98.0219,VALID,0,VALID,19.5093,VALID,119,VALID,0.837109,
2014-11-19, 02:51:05,VALID,916.448,VALID,0,VALID,98.0371,VALID,0,VALID,19.4898,VALID,128,VALID,1.12695,
2014-11-19, 02:52:05,VALID,916.459,VALID,0,VALID,98.0448,VALID,0,VALID,19.4883,VALID,129,VALID,0.911328,
2014-11-19, 02:53:05,VALID,916.459,VALID,0,VALID,98.0524,VALID,0,VALID,19.5093,VALID,135,VALID,0.798047,
2014-11-19, 02:54:05,VALID,916.439,VALID,0,VALID,98.0295,VALID,0,VALID,19.5288,VALID,135,VALID,1.21758,
2014-11-19, 02:55:05,VALID,916.44,VALID,0,VALID,98.0219,VALID,0,VALID,19.5663,VALID,133,VALID,0.735156,
2014-11-19, 02:56:05,VALID,916.423,VALID,0,VALID,98.0219,VALID,0,VALID,19.5858,VALID,128,VALID,1.23516,
2014-11-19, 02:57:05,VALID,916.457,VALID,0,VALID,98.0295,VALID,0.107441,VALID,19.6053,VALID,136,VALID,1.01055,
2014-11-19, 02:58:05,VALID,916.449,VALID,0,VALID,97.999,VALID,0,VALID,19.5858,VALID,127,VALID,0.991797,
2014-11-19, 02:59:05,VALID,916.457,VALID,0,VALID,98.0295,VALID,0.107441,VALID,19.6053,VALID,124,VALID,1.09844,
2014-11-19, 03:00:05,VALID,916.431,VALID,0,VALID,98.0143,VALID,0.107441,VALID,19.6053,VALID,127,VALID,0.762891,
2014-11-19, 03:01:05,VALID,916.45,VALID,0,VALID,98.0219,VALID,0.107441,VALID,19.6053,VALID,139,VALID,1.44609,
2014-11-19, 03:02:05,VALID,916.442,VALID,0,VALID,98.0143,VALID,0,VALID,19.6053,VALID,143,VALID,1.48711,
2014-11-19, 03:03:05,VALID,916.441,VALID,0,VALID,98.0219,VALID,0,VALID,19.6053,VALID,143,VALID,0.516797,
2014-11-19, 03:04:05,VALID,916.476,VALID,0,VALID,98.0295,VALID,0,VALID,19.6248,VALID,142,VALID,1.41445,
2014-11-19, 03:05:05,VALID,916.47,VALID,0,VALID,98.0066,VALID,0,VALID,19.6248,VALID,139,VALID,0.919141,
2014-11-19, 03:06:05,VALID,916.44,VALID,0,VALID,98.0143,VALID,0,VALID,19.6038,VALID,154,VALID,1.13555,
2014-11-19, 03:07:05,VALID,916.484,VALID,0,VALID,98.0143,VALID,0,VALID,19.6443,VALID,161,VALID,0.764063,
2014-11-19, 03:08:05,VALID,916.461,VALID,0,VALID,98.0143,VALID,0,VALID,19.6443,VALID,148,VALID,0.873047,
2014-11-19, 03:09:05,VALID,916.431,VALID,0,VALID,98.0066,VALID,0,VALID,19.6443,VALID,153,VALID,0.656641,
2014-11-19, 03:10:05,VALID,916.457,VALID,0,VALID,98.0295,VALID,0,VALID,19.6443,VALID,138,VALID,0.69375,
2014-11-19, 03:11:05,VALID,916.437,VALID,0,VALID,98.0066,VALID,0,VALID,19.6248,VALID,138,VALID,0.817969,
2014-11-19, 03:12:05,VALID,916.435,VALID,0,VALID,98.0219,VALID,0.107441,VALID,19.6443,VALID,139,VALID,1.18828,
2014-11-19, 03:13:05,VALID,916.433,VALID,0,VALID,98.0143,VALID,0.107441,VALID,19.6248,VALID,138,VALID,0.891016,
2014-11-19, 03:14:05,VALID,916.394,VALID,0,VALID,98.0219,VALID,0.107441,VALID,19.6038,VALID,138,VALID,0.585547,
2014-11-19, 03:15:05,VALID,916.412,VALID,0,VALID,98.0066,VALID,0.107441,VALID,19.6233,VALID,139,VALID,0.661719,
2014-11-19, 03:16:05,VALID,916.406,VALID,0,VALID,97.999,VALID,0,VALID,19.6443,VALID,145,VALID,0.451953,
2014-11-19, 03:17:05,VALID,916.42,VALID,0,VALID,98.0143,VALID,0.107441,VALID,19.6443,VALID,145,VALID,0.58125,
2014-11-19, 03:18:05,VALID,916.43,VALID,0,VALID,98.0143,VALID,0.107441,VALID,19.6233,VALID,145,VALID,0.669141,
2014-11-19, 03:19:05,VALID,916.417,VALID,0,VALID,98.0143,VALID,0,VALID,19.6248,VALID,146,VALID,0.582422,
2014-11-19, 03:20:05,VALID,916.417,VALID,0,VALID,97.999,VALID,0,VALID,19.6443,VALID,146,VALID,0.574609,
2014-11-19, 03:21:05,VALID,916.416,VALID,0,VALID,98.0219,VALID,0.107441,VALID,19.6443,VALID,146,VALID,0.372266,
2014-11-19, 03:22:05,VALID,916.402,VALID,0,VALID,98.0066,VALID,0,VALID,19.6443,VALID,165,VALID,1.04023,
2014-11-19, 03:23:05,VALID,916.394,VALID,0,VALID,98.0143,VALID,0.107441,VALID,19.6428,VALID,165,VALID,0.758203,
2014-11-19, 03:24:05,VALID,916.412,VALID,0,VALID,98.0143,VALID,0.107441,VALID,19.6638,VALID,166,VALID,1.05352,
2014-11-19, 03:25:05,VALID,916.408,VALID,0,VALID,98.0219,VALID,0,VALID,19.6443,VALID,171,VALID,0.726172,
2014-11-19, 03:26:05,VALID,916.4,VALID,0,VALID,98.0143,VALID,0,VALID,19.6443,VALID,170,VALID,0.829297,
2014-11-19, 03:27:05,VALID,916.38,VALID,0,VALID,98.0066,VALID,0,VALID,19.6443,VALID,156,VALID,0.684375,
2014-11-19, 03:28:05,VALID,916.365,VALID,0,VALID,98.0295,VALID,0,VALID,19.6653,VALID,161,VALID,0.766406,
2014-11-19, 03:29:05,VALID,916.357,VALID,0,VALID,97.999,VALID,0,VALID,19.6653,VALID,168,VALID,1.20313,
2014-11-19, 03:30:05,VALID,916.338,VALID,0,VALID,98.0066,VALID,0,VALID,19.6443,VALID,171,VALID,0.816406,
2014-11-19, 03:31:05,VALID,916.331,VALID,0,VALID,98.0066,VALID,0,VALID,19.6653,VALID,168,VALID,0.127734,
2014-11-19, 03:32:05,VALID,916.349,VALID,0,VALID,98.0066,VALID,0,VALID,19.6443,VALID,168,VALID,0.475391,
2014-11-19, 03:33:05,VALID,916.323,VALID,0,VALID,98.0066,VALID,0,VALID,19.6638,VALID,168,VALID,0.760938,
2014-11-19, 03:34:05,VALID,916.32,VALID,0,VALID,98.0219,VALID,0,VALID,19.6653,VALID,168,VALID,0.447656,
2014-11-19, 03:35:05,VALID,916.343,VALID,0,VALID,97.999,VALID,0,VALID,19.6848,VALID,168,VALID,0.377344,
2014-11-19, 03:36:05,VALID,916.376,VALID,0,VALID,98.0143,VALID,0,VALID,19.6848,VALID,167,VALID,0.0148437,
2014-11-19, 03:37:05,VALID,916.344,VALID,0,VALID,97.999,VALID,0,VALID,19.6848,VALID,167,VALID,0,
2014-11-19, 03:38:05,VALID,916.369,VALID,0,VALID,97.999,VALID,0,VALID,19.6638,VALID,167,VALID,0,
2014-11-19, 03:39:05,VALID,916.375,VALID,0,VALID,98.0219,VALID,0,VALID,19.6833,VALID,167,VALID,0,
2014-11-19, 03:40:05,VALID,916.409,VALID,0,VALID,98.0143,VALID,0,VALID,19.6848,VALID,167,VALID,0,
2014-11-19, 03:41:05,VALID,916.406,VALID,0,VALID,98.0066,VALID,0,VALID,19.7043,VALID,167,VALID,0,
2014-11-19, 03:42:05,VALID,916.436,VALID,0,VALID,97.9914,VALID,0,VALID,19.7028,VALID,167,VALID,0,
2014-11-19, 03:43:05,VALID,916.448,VALID,0,VALID,98.0066,VALID,0,VALID,19.7433,VALID,167,VALID,0,
2014-11-19, 03:44:05,VALID,916.429,VALID,0,VALID,97.999,VALID,0,VALID,19.7628,VALID,167,VALID,0,
2014-11-19, 03:45:05,VALID,916.448,VALID,0,VALID,97.9914,VALID,0,VALID,19.7238,VALID,167,VALID,0,
2014-11-19, 03:46:05,VALID,916.457,VALID,0,VALID,97.999,VALID,0,VALID,19.6833,VALID,167,VALID,0.252344,
2014-11-19, 03:47:05,VALID,916.43,VALID,0,VALID,98.0143,VALID,0,VALID,19.7043,VALID,167,VALID,0.395312,
2014-11-19, 03:48:05,VALID,916.477,VALID,0,VALID,98.0143,VALID,0,VALID,19.6638,VALID,167,VALID,0.121875,
2014-11-19, 03:49:05,VALID,916.464,VALID,0,VALID,98.0219,VALID,0,VALID,19.6443,VALID,167,VALID,0,